timestamp,surface_pressure_avg,surface_temp_avg,battery_voltage,lat,long
2019-02-27 00:00:00+00:00,240.3498,-0.6,12.65,47.84626,-54.09684
2019-02-27 00:10:00+00:00,243.9364,-0.6,12.65,47.84626,-54.09684
2019-02-27 00:20:00+00:00,249.9314,-0.6,12.73,47.84626,-54.09684
2019-02-27 00:30:00+00:00,253.4281,-0.6,12.73,47.84626,-54.09684
2019-02-27 00:40:00+00:00,253.3997,-0.6,12.73,47.84626,-54.09684
2019-02-27 00:50:00+00:00,255.4798,-0.6,12.73,47.84626,-54.09684
2019-02-27 01:00:00+00:00,260.5447,-0.6,12.65,47.84626,-54.09684
2019-02-27 01:10:00+00:00,264.3414,-0.6,12.65,47.84626,-54.09684
2019-02-27 01:20:00+00:00,264.1798,-0.6,12.73,47.84626,-54.09684
2019-02-27 01:30:00+00:00,262.6014,-0.6,12.73,47.84626,-54.09684
2019-02-27 01:40:00+00:00,265.2797,-0.6,12.73,47.84626,-54.09684
2019-02-27 01:50:00+00:00,267.6714,-0.6,12.73,47.84626,-54.09684
2019-02-27 02:00:00+00:00,268.2097,-0.6,12.65,47.84626,-54.09684
2019-02-27 02:10:00+00:00,270.9181,-0.6,12.65,47.84626,-54.09684
2019-02-27 02:20:00+00:00,277.1714,-0.6,12.73,47.84626,-54.09684
2019-02-27 02:30:00+00:00,281.2531,-0.75,12.73,47.84626,-54.09684
2019-02-27 02:40:00+00:00,287.558,-0.67,12.73,47.84626,-54.09684
2019-02-27 02:50:00+00:00,296.9714,-0.64,12.73,47.84626,-54.09684
2019-02-27 03:00:00+00:00,303.5064,-0.67,12.65,47.84626,-54.09684
2019-02-27 03:10:00+00:00,308.4963,-0.7,12.65,47.84626,-54.09684
2019-02-27 03:20:00+00:00,319.153,-0.7,12.73,47.84626,-54.09684
2019-02-27 03:30:00+00:00,330.0696,-0.7,12.73,47.84626,-54.09684
2019-02-27 03:40:00+00:00,332.153,-0.7,12.73,47.84626,-54.09684
2019-02-27 03:50:00+00:00,329.953,-0.7,12.73,47.84626,-54.09684
2019-02-27 04:00:00+00:00,332.703,-0.7,12.65,47.84626,-54.09684
2019-02-27 04:10:00+00:00,335.798,-0.67,12.57,47.84626,-54.09684
2019-02-27 04:20:00+00:00,334.6813,-0.65,12.65,47.84626,-54.09684
2019-02-27 04:30:00+00:00,334.668,-0.64,12.65,47.84626,-54.09684
2019-02-27 04:40:00+00:00,338.8563,-0.66,12.73,47.84626,-54.09684
2019-02-27 04:50:00+00:00,343.0764,-0.68,12.73,47.84626,-54.09684
2019-02-27 05:00:00+00:00,341.5914,-0.7,12.65,47.84626,-54.09684
2019-02-27 05:10:00+00:00,344.0863,-0.7,12.57,47.84626,-54.09684
2019-02-27 05:20:00+00:00,352.1563,-0.7,12.65,47.84626,-54.09684
2019-02-27 05:30:00+00:00,357.8163,-0.7,12.65,47.84626,-54.09684
2019-02-27 05:40:00+00:00,356.9114,-0.7,12.73,47.84626,-54.09684
2019-02-27 05:50:00+00:00,359.8264,-0.7,12.73,47.84626,-54.09684
2019-02-27 06:00:00+00:00,362.9697,-0.7,12.65,47.84626,-54.09684
2019-02-27 06:10:00+00:00,364.0613,-0.7,12.57,47.84626,-54.09684
2019-02-27 06:20:00+00:00,365.6329,-0.7,12.65,47.84626,-54.09684
2019-02-27 06:30:00+00:00,367.0729,-0.7,12.65,47.84626,-54.09684
2019-02-27 06:40:00+00:00,367.5595,-0.7,12.73,47.84626,-54.09684
2019-02-27 06:50:00+00:00,368.1146,-0.7,12.73,47.84626,-54.09684
2019-02-27 07:00:00+00:00,367.0546,-0.66,12.65,47.84626,-54.09684
2019-02-27 07:10:00+00:00,363.493,-0.63,12.57,47.84626,-54.09684
2019-02-27 07:20:00+00:00,361.4346,-0.62,12.65,47.84626,-54.09684
2019-02-27 07:30:00+00:00,356.0613,-0.61,12.65,47.84626,-54.09684
2019-02-27 07:40:00+00:00,344.698,-0.64,12.73,47.84626,-54.09684
2019-02-27 07:50:00+00:00,336.6096,-0.66,12.73,47.84626,-54.09684
2019-02-27 08:00:00+00:00,335.2613,-0.68,12.65,47.84626,-54.09684
2019-02-27 08:10:00+00:00,328.5996,-0.7,12.57,47.84626,-54.09684
2019-02-27 08:20:00+00:00,320.2863,-0.7,12.65,47.84626,-54.09684
2019-02-27 08:30:00+00:00,318.843,-0.7,12.65,47.84626,-54.09684
2019-02-27 08:40:00+00:00,314.3214,-0.7,12.73,47.84626,-54.09684
2019-02-27 08:50:00+00:00,306.9998,-0.71,12.73,47.84626,-54.09684
2019-02-27 09:00:00+00:00,300.4397,-0.71,12.65,47.84626,-54.09684
2019-02-27 09:10:00+00:00,296.6197,-0.71,12.57,47.84626,-54.09684
2019-02-27 09:20:00+00:00,291.7946,-0.73,12.65,47.84626,-54.09684
2019-02-27 09:30:00+00:00,286.3597,-0.8,12.65,47.84626,-54.09684
2019-02-27 09:40:00+00:00,282.093,-0.8,12.73,47.84626,-54.09684
2019-02-27 09:50:00+00:00,282.3864,-0.8,12.73,47.84626,-54.09684
2019-02-27 10:00:00+00:00,280.7947,-0.8,12.65,47.84626,-54.09684
2019-02-27 10:10:00+00:00,274.0015,-0.8,12.57,47.84626,-54.09684
2019-02-27 10:20:00+00:00,269.148,-0.8,12.65,47.84626,-54.09684
2019-02-27 10:30:00+00:00,268.3997,-0.8,12.65,47.84626,-54.09684
2019-02-27 10:40:00+00:00,268.183,-0.8,12.73,47.84626,-54.09684
2019-02-27 10:50:00+00:00,265.1147,-0.8,12.73,47.84626,-54.09684
2019-02-27 11:00:00+00:00,263.7198,-0.77,12.65,47.84626,-54.09684
2019-02-27 11:10:00+00:00,265.4348,-0.73,12.57,47.84626,-54.09684
2019-02-27 11:20:00+00:00,266.5647,-0.71,12.73,47.84626,-54.09684
2019-02-27 11:30:00+00:00,265.6747,-0.7,12.73,47.84626,-54.09684
2019-02-27 11:40:00+00:00,267.0081,-0.7,12.89,47.84626,-54.09684
2019-02-27 11:50:00+00:00,268.7548,-0.7,12.97,47.84626,-54.09684
2019-02-27 12:00:00+00:00,265.7681,-0.7,12.97,47.84626,-54.09684
2019-02-27 12:10:00+00:00,263.8297,-0.7,12.97,47.84626,-54.09684
2019-02-27 12:20:00+00:00,268.5298,-0.7,13.13,47.84626,-54.09684
2019-02-27 12:30:00+00:00,271.1314,-0.7,13.29,47.84626,-54.09684
2019-02-27 12:40:00+00:00,267.9414,-0.7,13.53,47.84626,-54.09684
2019-02-27 12:50:00+00:00,269.1831,-0.72,13.76,47.84626,-54.09684
2019-02-27 13:00:00+00:00,274.7531,-0.7,13.76,47.84626,-54.09684
2019-02-27 13:10:00+00:00,275.3964,-0.76,14.32,47.84626,-54.09684
2019-02-27 13:20:00+00:00,274.973,-0.78,14.56,47.84626,-54.09684
2019-02-27 13:30:00+00:00,278.3647,-0.8,15.67,47.84626,-54.09684
2019-02-27 13:40:00+00:00,280.5397,-0.75,17.11,47.84626,-54.09684
2019-02-27 13:50:00+00:00,281.0697,-0.75,16.87,47.84626,-54.09684
2019-02-27 14:00:00+00:00,283.1381,-0.76,16.55,47.84626,-54.09684
2019-02-27 14:10:00+00:00,283.7714,-0.73,16.23,47.84626,-54.09684
2019-02-27 14:20:00+00:00,283.0697,-0.76,15.44,47.84626,-54.09684
2019-02-27 14:30:00+00:00,285.8964,-0.75,15.51,47.84626,-54.09684
2019-02-27 14:40:00+00:00,290.188,-0.72,15.6,47.84626,-54.09684
2019-02-27 14:50:00+00:00,290.5613,-0.73,15.6,47.84626,-54.09684
2019-02-27 15:00:00+00:00,292.7864,-0.74,15.27,47.84626,-54.09684
2019-02-27 15:10:00+00:00,298.0747,-0.72,15.35,47.84626,-54.09684
2019-02-27 15:20:00+00:00,303.6114,-0.71,15.04,47.84626,-54.09684
2019-02-27 15:30:00+00:00,302.8281,-0.7,14.96,47.84626,-54.09684
2019-02-27 15:40:00+00:00,303.783,-0.7,14.96,47.84626,-54.09684
2019-02-27 15:50:00+00:00,310.9363,-0.7,15.11,47.84626,-54.09684
2019-02-27 16:00:00+00:00,316.5046,-0.7,15.04,47.84626,-54.09684
2019-02-27 16:10:00+00:00,315.278,-0.7,14.96,47.84626,-54.09684
2019-02-27 16:20:00+00:00,317.2563,-0.7,15.04,47.84626,-54.09684
2019-02-27 16:30:00+00:00,322.153,-0.7,14.96,47.84626,-54.09684
2019-02-27 16:40:00+00:00,322.8763,-0.67,14.8,47.84626,-54.09684
2019-02-27 16:50:00+00:00,323.7081,-0.62,14.64,47.84626,-54.09684
2019-02-27 17:00:00+00:00,330.283,-0.61,14.64,47.84626,-54.09684
2019-02-27 17:10:00+00:00,332.6547,-0.61,14.64,47.84626,-54.09684
2019-02-27 17:20:00+00:00,331.1398,-0.6,14.72,47.84626,-54.09684
2019-02-27 17:30:00+00:00,333.5213,-0.6,14.72,47.84626,-54.09684
2019-02-27 17:40:00+00:00,338.7796,-0.6,14.64,47.84626,-54.09684
2019-02-27 17:50:00+00:00,338.0846,-0.6,14.64,47.84626,-54.09684
2019-02-27 18:00:00+00:00,336.6246,-0.6,14.56,47.84626,-54.09684
2019-02-27 18:10:00+00:00,339.8214,-0.6,14.4,47.84626,-54.09684
2019-02-27 18:20:00+00:00,344.083,-0.6,14.48,47.84626,-54.09684
2019-02-27 18:30:00+00:00,342.1696,-0.61,14.48,47.84626,-54.09684
2019-02-27 18:40:00+00:00,338.5663,-0.61,14.48,47.84626,-54.09684
2019-02-27 18:50:00+00:00,339.0596,-0.6,14.48,47.84626,-54.09684
2019-02-27 19:00:00+00:00,339.5663,-0.61,14.32,47.84626,-54.09684
2019-02-27 19:10:00+00:00,338.6163,-0.61,14.24,47.84626,-54.09684
2019-02-27 19:20:00+00:00,336.938,-0.62,14.32,47.84626,-54.09684
2019-02-27 19:30:00+00:00,334.183,-0.61,14.24,47.84626,-54.09684
2019-02-27 19:40:00+00:00,334.2246,-0.61,14.32,47.84626,-54.09684
2019-02-27 19:50:00+00:00,331.2296,-0.61,14.32,47.84626,-54.09684
2019-02-27 20:00:00+00:00,326.8163,-0.61,14.24,47.84626,-54.09684
2019-02-27 20:10:00+00:00,322.9514,-0.6,14.16,47.84626,-54.09684
2019-02-27 20:20:00+00:00,320.123,-0.6,14.24,47.84626,-54.09684
2019-02-27 20:30:00+00:00,313.728,-0.6,14.16,47.84626,-54.09684
2019-02-27 20:40:00+00:00,307.7164,-0.6,14.16,47.84626,-54.09684
2019-02-27 20:50:00+00:00,302.558,-0.6,14.08,47.84626,-54.09684
2019-02-27 21:00:00+00:00,295.5013,-0.61,13.92,47.84626,-54.09684
2019-02-27 21:10:00+00:00,289.1814,-0.64,13.68,47.84626,-54.09684
2019-02-27 21:20:00+00:00,285.9431,-0.67,13.68,47.84626,-54.09684
2019-02-27 21:30:00+00:00,281.1014,-0.7,13.6,47.84626,-54.09684
2019-02-27 21:40:00+00:00,274.0548,-0.7,13.6,47.84626,-54.09684
2019-02-27 21:50:00+00:00,269.9614,-0.7,13.53,47.84626,-54.09684
2019-02-27 22:00:00+00:00,264.5714,-0.7,13.37,47.84626,-54.09684
2019-02-27 22:10:00+00:00,258.5631,-0.7,13.29,47.84626,-54.09684
2019-02-27 22:20:00+00:00,254.8997,-0.7,13.29,47.84626,-54.09684
2019-02-27 22:30:00+00:00,254.1397,-0.7,13.21,47.84626,-54.09684
2019-02-27 22:40:00+00:00,248.4881,-0.7,13.21,47.84626,-54.09684
2019-02-27 22:50:00+00:00,242.6697,-0.7,13.21,47.84626,-54.09684
2019-02-27 23:00:00+00:00,246.0897,-0.7,13.13,47.84626,-54.09684
2019-02-27 23:10:00+00:00,247.8465,-0.7,12.97,47.84626,-54.09684
2019-02-27 23:20:00+00:00,243.5248,-0.7,13.05,47.84626,-54.09684
2019-02-27 23:30:00+00:00,243.9398,-0.7,13.05,47.84626,-54.09684
2019-02-27 23:40:00+00:00,248.4164,-0.7,13.05,47.84626,-54.09684
2019-02-27 23:50:00+00:00,246.6797,-0.7,13.05,47.84626,-54.09684
